PBO Station Position Time Series. Reference Frame : NAM14
Format Version,1.1.1
4-character ID,TGUA
Station name,Guacamole
Begin Date, 2004-10-22
End Date, 2023-05-14
Release Date, 2023-06-22
Reference position, 46.2191955946 North Latitude, -122.1923320201 East Longitude, 1618.27331 meters elevation,
Date, North (mm), East (mm), Vertical (mm), North Std. Deviation (mm), East Std. Deviation (mm),              Vertical Std. Deviation (mm), Quality,
2004-10-22,0.00, 0.00, 0.00, 2.36, 1.63, 7.38, repro,
2004-10-25,-0.16, -0.26, 0.15, 2.27, 1.60, 7.28, repro,
2004-10-27,3.58, 0.44, 12.89, 6.58, 5.04, 21.07, repro,
2004-10-28,1.43, 0.14, 4.43, 2.34, 1.62, 7.35, repro,
2004-10-29,-1.42, 1.19, 0.10, 2.33, 1.64, 7.50, repro,
2004-10-30,0.91, 0.36, 13.78, 2.40, 1.69, 7.73, repro,
2004-10-31,-0.83, 0.10, 7.88, 2.44, 1.75, 7.92, repro,
2004-11-01,1.30, 2.75, -5.77, 2.41, 1.73, 7.76, repro,
2004-11-02,4.53, 4.79, -16.68, 2.30, 1.60, 7.30, repro,
2004-11-03,0.64, 0.48, -0.33, 2.32, 1.65, 7.40, repro,
2004-11-04,0.82, 1.05, 0.58, 2.32, 1.65, 7.43, repro,
2004-11-05,-1.19, -0.07, -3.85, 2.61, 1.99, 8.85, repro,
2004-11-06,0.38, -0.01, -4.02, 2.40, 1.68, 7.65, repro,
2004-11-07,2.21, 0.93, -4.93, 2.31, 1.60, 7.28, repro,
2004-11-08,1.36, 1.95, -1.47, 2.68, 1.86, 8.62, repro,
2004-11-09,-1.82, -0.25, -0.61, 2.34, 1.66, 7.42, repro,
2004-11-10,-0.10, 2.12, -4.59, 2.39, 1.72, 7.86, repro,
2004-11-11,-0.39, 2.32, -16.01, 2.28, 1.63, 7.29, repro,
2004-11-12,-1.06, 1.63, -10.76, 2.34, 1.65, 7.48, repro,
2004-11-13,-1.37, 1.02, -8.06, 2.38, 1.66, 7.44, repro,
2004-11-14,-0.42, 2.20, -9.24, 2.38, 1.67, 7.47, repro,
2004-11-15,4.68, 5.97, -12.07, 2.35, 1.69, 7.50, repro,
2004-11-16,-0.51, 1.36, -1.66, 2.30, 1.64, 7.33, repro,
2004-11-17,1.30, 2.82, -2.89, 2.38, 1.65, 7.47, repro,
2004-11-18,1.56, 3.11, -2.40, 2.32, 1.64, 7.42, repro,
2004-11-19,-0.37, 1.06, -1.33, 2.47, 1.75, 7.93, repro,
2004-11-20,1.81, 1.57, -0.93, 2.40, 1.69, 7.64, repro,
2004-11-21,-0.68, 0.97, -2.84, 2.51, 1.80, 7.99, repro,
2004-11-22,2.09, 2.81, -8.42, 2.37, 1.70, 7.67, repro,
2004-11-23,1.56, 1.36, -2.90, 2.37, 1.66, 7.44, repro,
2004-11-24,-1.14, 7.06, -10.70, 2.37, 1.68, 7.51, repro,
2004-11-25,0.28, 2.42, 0.29, 2.44, 1.77, 7.91, repro,
2004-11-26,-0.64, 0.90, 2.25, 2.33, 1.68, 7.52, repro,
2004-11-27,0.14, -0.30, 4.89, 2.35, 1.71, 7.56, repro,
2004-11-28,-0.63, -0.30, -2.05, 2.30, 1.67, 7.48, repro,
2004-11-29,0.82, -0.42, -6.65, 2.24, 1.59, 7.14, repro,
2004-11-30,4.30, 0.51, -2.52, 2.26, 1.61, 7.25, repro,
2004-12-01,-0.39, -0.53, -5.03, 2.37, 1.67, 7.50, repro,
2004-12-02,0.70, -1.56, -4.90, 2.29, 1.61, 7.27, repro,
2004-12-03,0.17, -0.10, 1.28, 2.31, 1.64, 7.41, repro,
2004-12-04,-2.85, -0.42, -0.47, 2.29, 1.66, 7.45, repro,
2004-12-05,-0.07, -0.91, 6.91, 2.26, 1.61, 7.28, repro,
2004-12-06,1.20, -1.72, 0.80, 2.41, 1.74, 7.80, repro,
2004-12-07,0.92, 0.84, 10.62, 2.37, 1.68, 7.57, repro,
2004-12-08,5.20, 1.82, 5.83, 2.30, 1.61, 7.29, repro,
2004-12-09,3.20, 0.59, 11.15, 2.30, 1.64, 7.38, repro,
2004-12-10,3.45, 3.39, -15.67, 2.35, 1.69, 7.64, repro,
2004-12-11,2.06, 3.09, -10.73, 2.31, 1.64, 7.42, repro,
2004-12-12,-0.32, 1.24, -5.22, 2.31, 1.64, 7.43, repro,
2004-12-13,6.79, 4.87, -3.90, 2.32, 1.63, 7.43, repro,
2004-12-14,4.73, 4.08, -26.17, 2.34, 1.65, 7.36, repro,
2004-12-15,1.92, 1.56, -9.68, 2.32, 1.63, 7.30, repro,
2004-12-16,0.56, 2.26, -13.34, 2.32, 1.60, 7.34, repro,
2004-12-17,2.41, 1.80, -7.50, 2.25, 1.60, 7.22, repro,
2004-12-18,1.59, 1.86, -13.53, 2.23, 1.60, 7.22, repro,
2004-12-19,1.47, -0.21, -13.35, 2.22, 1.58, 7.10, repro,
2004-12-20,0.49, -0.29, -3.49, 2.22, 1.57, 7.07, repro,
2004-12-21,2.90, -0.45, 0.38, 2.28, 1.61, 7.36, repro,
2004-12-22,2.39, 1.41, -16.19, 2.30, 1.63, 7.48, repro,
2004-12-23,0.11, 0.74, -16.85, 2.24, 1.59, 7.20, repro,
2004-12-24,1.18, 1.79, -10.50, 2.27, 1.61, 7.23, repro,
2004-12-25,5.28, 2.54, -4.02, 2.26, 1.61, 7.24, repro,
2004-12-26,3.90, 0.77, -7.72, 2.34, 1.61, 7.24, repro,
2004-12-27,0.72, 0.84, -8.75, 2.36, 1.61, 7.30, repro,
2004-12-28,-3.60, 4.69, -3.11, 2.46, 1.65, 7.50, repro,
2004-12-29,-1.23, 1.73, -3.01, 2.41, 1.63, 7.44, repro,
2004-12-30,-0.77, 0.64, 0.15, 2.45, 1.68, 7.50, repro,
2004-12-31,-0.05, 0.06, -5.52, 2.58, 1.76, 7.89, repro,
2005-01-01,0.89, 3.49, -6.55, 2.45, 1.65, 7.41, repro,
2005-01-02,-3.24, 4.52, -7.52, 2.50, 1.66, 7.50, repro,
2005-01-03,0.53, 3.32, -9.96, 2.89, 1.85, 8.22, repro,
2005-01-04,-2.92, 4.34, -12.33, 2.48, 1.65, 7.48, repro,
2005-01-05,-2.83, 4.08, -13.72, 2.82, 1.85, 8.29, repro,
2005-01-06,-1.22, 2.62, -1.88, 2.39, 1.66, 7.41, repro,
2005-01-07,2.90, 2.44, -13.66, 2.87, 1.94, 9.03, repro,
2005-01-08,2.84, 2.69, -6.15, 3.23, 2.17, 9.54, repro,
2005-01-09,-3.16, 4.75, -16.61, 2.83, 2.05, 9.44, repro,
2005-01-10,-1.79, 3.01, -2.97, 3.34, 2.29, 10.27, repro,
2005-01-11,-2.00, 4.65, -0.55, 2.78, 2.06, 9.07, repro,
2005-01-12,-5.38, 5.53, 1.75, 3.30, 2.45, 11.23, repro,
2005-01-13,-2.30, 1.52, 2.53, 2.91, 2.08, 9.20, repro,
2005-01-14,-0.56, 2.10, -15.56, 3.90, 2.53, 11.77, repro,
2005-01-15,-3.34, 3.47, -17.97, 2.66, 1.98, 8.67, repro,
2005-01-16,-2.74, 4.66, -18.44, 2.40, 1.71, 7.40, repro,
2005-01-17,-1.60, 6.44, -12.71, 2.30, 1.62, 7.23, repro,
2005-01-18,4.59, 6.23, -18.71, 2.37, 1.65, 7.42, repro,
2005-01-19,7.39, 4.54, -19.00, 2.44, 1.66, 7.46, repro,
2005-01-20,6.20, 5.13, -18.58, 2.38, 1.67, 7.54, repro,
2005-01-21,0.38, 2.31, -21.82, 2.37, 1.66, 7.49, repro,
2005-01-22,-1.06, 3.38, -1.81, 2.32, 1.68, 7.46, repro,
2005-01-23,-2.74, 2.06, -4.78, 2.30, 1.63, 7.29, repro,
2005-01-24,-0.61, 2.99, -16.21, 2.33, 1.67, 7.42, repro,
2005-01-25,0.55, 3.16, -19.23, 2.38, 1.71, 7.64, repro,
2005-01-26,5.49, -0.04, -20.59, 2.76, 1.86, 8.25, repro,
2005-01-27,-2.31, 3.70, -14.13, 2.90, 1.95, 8.70, repro,
2005-01-28,-3.60, 2.54, -14.08, 3.06, 2.12, 9.21, repro,
2005-01-29,-0.41, 0.47, -10.24, 2.84, 2.08, 9.49, repro,
2005-01-30,-1.22, 1.90, -12.42, 2.93, 2.02, 9.11, repro,
2005-01-31,0.95, 1.30, -15.17, 2.69, 1.88, 8.69, repro,
2005-02-01,-0.92, 1.78, -17.04, 2.99, 2.06, 9.16, repro,
2005-02-02,-0.25, 2.38, -13.82, 2.39, 1.67, 7.62, repro,
2005-02-03,0.79, 2.55, -12.33, 2.57, 1.73, 8.10, repro,
2005-02-04,0.81, 2.84, -10.69, 2.33, 1.58, 7.23, repro,
2005-02-05,1.61, -0.67, -11.02, 3.85, 2.59, 11.45, repro,
2005-02-06,-3.05, 2.77, -14.93, 3.82, 2.56, 12.43, repro,
2005-02-07,-1.29, -0.23, -4.65, 3.27, 2.34, 10.16, repro,
2005-02-08,1.63, 1.98, -5.37, 3.19, 2.25, 9.81, repro,
2005-02-09,0.14, 3.32, -7.03, 3.07, 2.04, 9.11, repro,
2005-02-10,-1.62, 1.79, -8.64, 2.82, 1.89, 8.61, repro,
2005-02-11,-4.47, 1.46, -6.91, 2.31, 1.58, 7.24, repro,
2005-02-12,-0.18, 2.37, -11.56, 2.28, 1.57, 7.20, repro,
2005-02-13,-0.20, 1.72, 0.79, 2.26, 1.58, 7.18, repro,
2005-02-14,-3.37, 1.80, -2.59, 2.28, 1.58, 7.18, repro,
2005-02-15,-1.44, 0.53, -10.21, 2.63, 1.78, 8.22, repro,
2005-02-16,1.40, 0.50, -20.82, 2.86, 1.86, 8.49, repro,
2005-02-18,1.62, 1.53, -12.33, 5.15, 2.74, 12.52, repro,
2005-02-19,0.81, 0.53, -8.39, 3.02, 2.04, 9.54, repro,
2005-02-20,-1.82, 2.81, -7.33, 2.58, 1.77, 8.09, repro,
2005-02-23,-1.05, 0.81, -16.83, 3.45, 2.31, 10.50, repro,
2005-02-25,0.81, 2.82, -0.53, 3.13, 2.01, 9.22, repro,
2005-03-11,2.57, 2.96, -2.50, 2.93, 1.96, 8.78, repro,
2005-03-12,1.75, 1.87, -6.13, 2.34, 1.58, 7.25, repro,
2005-03-13,0.55, 1.92, -14.25, 2.34, 1.59, 7.26, repro,
2005-03-14,1.59, 2.13, -11.78, 2.35, 1.59, 7.29, repro,
2005-03-15,0.19, 1.82, -8.64, 2.41, 1.62, 7.41, repro,
2005-03-16,1.71, 3.16, -5.95, 2.42, 1.62, 7.48, repro,
2005-03-17,-0.37, 1.35, 3.35, 2.54, 1.70, 7.92, repro,
2005-04-14,1.13, 3.02, -3.52, 7.42, 4.29, 18.57, repro,
2005-04-15,-1.50, 2.48, -12.53, 2.43, 1.61, 7.45, repro,
2005-04-16,1.94, 4.60, -22.30, 2.40, 1.61, 7.57, repro,
2005-04-17,-2.15, 3.30, -8.72, 2.36, 1.59, 7.29, repro,
2005-04-18,-0.45, 2.08, -7.69, 2.41, 1.64, 7.54, repro,
2005-04-19,-0.50, 1.75, -2.89, 2.39, 1.59, 7.30, repro,
2005-04-20,-1.15, 2.69, -10.42, 2.45, 1.61, 7.56, repro,
2005-04-21,-0.79, 2.27, -9.14, 2.43, 1.61, 7.61, repro,
2005-04-22,0.96, 0.88, -7.91, 2.36, 1.58, 7.25, repro,
2005-04-23,0.75, 0.59, -3.27, 2.37, 1.60, 7.33, repro,
2005-04-24,-3.59, 1.71, -9.45, 2.40, 1.62, 7.56, repro,
2005-04-25,-2.08, 2.82, -8.94, 2.38, 1.60, 7.31, repro,
2005-04-26,-2.52, 3.85, -7.09, 2.42, 1.61, 7.57, repro,
2005-04-27,0.04, 2.49, -14.31, 2.33, 1.59, 7.29, repro,
2005-04-28,-1.49, 3.00, -9.34, 2.40, 1.64, 7.47, repro,
2005-04-29,-2.05, 3.61, -15.80, 2.35, 1.58, 7.23, repro,
2005-04-30,-2.70, 2.97, -21.40, 2.36, 1.59, 7.27, repro,
2005-05-08,-2.29, 1.90, -5.87, 2.37, 1.60, 7.34, repro,
2005-05-09,-5.27, 2.94, -9.41, 2.35, 1.58, 7.27, repro,
2005-05-10,-3.88, 2.85, -9.56, 2.41, 1.61, 7.50, repro,
2005-05-11,-2.26, 2.42, -11.11, 2.44, 1.67, 7.64, repro,
2005-05-12,-2.17, 2.47, -14.17, 2.46, 1.69, 7.72, repro,
2005-05-13,-1.79, 3.34, -11.22, 2.52, 1.71, 7.85, repro,
2005-05-14,-3.19, 4.20, -4.73, 2.47, 1.69, 7.77, repro,
2005-05-15,-1.70, 3.95, -19.68, 2.49, 1.67, 7.76, repro,
2005-05-16,-2.88, 4.35, -17.59, 2.39, 1.65, 7.52, repro,
2005-05-17,-4.18, 3.50, -5.15, 2.47, 1.66, 7.59, repro,
2005-05-18,2.93, 6.25, -13.61, 2.61, 1.70, 7.85, repro,
2005-05-19,3.48, 7.73, -31.76, 2.42, 1.66, 7.58, repro,
2005-05-20,2.02, 6.25, -26.63, 2.39, 1.64, 7.52, repro,
2005-05-21,-3.48, 2.24, -14.73, 2.38, 1.64, 7.48, repro,
2005-05-22,4.66, 4.82, -20.87, 2.37, 1.62, 7.39, repro,
2005-05-23,-1.51, 4.04, -7.08, 2.38, 1.63, 7.43, repro,
2005-05-24,-0.64, 2.43, -8.95, 2.39, 1.64, 7.53, repro,
2005-05-25,-2.87, 5.99, -25.37, 2.41, 1.63, 7.52, repro,
2005-05-26,-1.35, 7.44, -26.36, 2.37, 1.63, 7.48, repro,
2005-05-27,0.25, 3.77, -15.24, 2.36, 1.64, 7.47, repro,
2005-05-28,-1.49, 1.11, -21.08, 2.93, 2.07, 9.29, repro,
2005-05-29,-0.44, 1.34, -3.50, 2.41, 1.65, 7.59, repro,
2005-05-30,-2.78, 2.82, -6.36, 2.41, 1.65, 7.58, repro,
2005-05-31,-2.33, 3.69, -13.42, 2.39, 1.64, 7.52, repro,
2005-06-01,-3.08, 4.27, -9.36, 2.36, 1.58, 7.29, repro,
2005-06-02,-2.65, 2.50, -10.31, 2.36, 1.58, 7.28, repro,
2005-06-03,-2.50, 2.78, -8.99, 2.35, 1.58, 7.26, repro,
2005-06-04,-1.49, 3.00, -4.43, 2.38, 1.58, 7.34, repro,
2005-06-05,-3.82, 2.46, -8.60, 2.40, 1.60, 7.43, repro,
2005-06-06,-5.21, 1.87, -9.71, 2.38, 1.59, 7.34, repro,
2005-06-07,-1.78, 1.92, -8.29, 2.37, 1.60, 7.33, repro,
2005-06-08,-3.43, 3.21, -11.65, 2.35, 1.58, 7.28, repro,
2005-06-09,-4.07, 1.79, -9.04, 2.41, 1.62, 7.45, repro,
2005-06-10,-3.39, 3.25, -11.13, 2.41, 1.63, 7.50, repro,
2005-06-11,-4.52, 4.06, -7.67, 2.44, 1.64, 7.58, repro,
2005-06-12,-3.61, 2.77, -17.36, 2.45, 1.65, 7.58, repro,
2005-06-13,-0.18, 4.53, -17.34, 2.42, 1.65, 7.52, repro,
2005-06-14,-2.59, 3.31, -17.14, 2.41, 1.63, 7.46, repro,
2005-06-15,-2.13, 2.36, -10.74, 2.38, 1.62, 7.38, repro,
2005-06-16,-3.21, 2.89, -12.44, 2.46, 1.62, 7.47, repro,
2005-06-17,-5.84, 2.22, -8.81, 2.46, 1.62, 7.44, repro,
2005-06-18,-5.73, 1.32, -12.98, 2.37, 1.60, 7.36, repro,
2005-06-19,-3.35, 0.97, -13.56, 2.36, 1.59, 7.33, repro,
2005-06-20,-1.43, 2.82, -7.79, 2.36, 1.60, 7.36, repro,
2005-06-21,-1.61, -2.41, -5.29, 2.67, 1.86, 8.49, repro,
2005-06-30,-10.89, 10.20, 36.59, 11.95, 7.53, 30.22, repro,
2005-07-01,-0.65, 2.34, -3.12, 2.35, 1.58, 7.27, repro,
2005-07-02,-3.46, 1.99, -12.93, 2.37, 1.58, 7.28, repro,
2005-07-03,-3.08, 1.13, -10.04, 2.36, 1.59, 7.25, repro,
2005-07-04,-2.47, 1.32, -14.46, 2.35, 1.57, 7.27, repro,
2005-07-05,-5.20, 1.32, -15.80, 2.35, 1.58, 7.27, repro,
2005-07-06,0.04, 5.31, -14.25, 2.34, 1.59, 7.31, repro,
2005-07-07,-3.41, 1.66, -10.51, 2.43, 1.62, 7.41, repro,
2005-07-08,-1.15, 2.52, -7.88, 2.38, 1.60, 7.32, repro,
2005-07-09,-3.72, 2.86, -8.73, 2.33, 1.59, 7.29, repro,
2005-07-10,-4.83, 3.15, -13.36, 2.47, 1.69, 7.60, repro,
2005-07-11,-1.58, 3.34, -18.68, 2.47, 1.64, 7.61, repro,
2005-07-12,-0.07, 3.77, -18.71, 2.37, 1.60, 7.33, repro,
2005-07-13,-0.98, 1.93, -8.33, 2.36, 1.59, 7.27, repro,
2005-07-14,0.53, 1.41, -7.37, 2.35, 1.62, 7.37, repro,
2005-07-15,-1.72, 3.00, -0.72, 2.33, 1.59, 7.24, repro,
2005-07-16,1.02, 3.56, -5.88, 2.34, 1.59, 7.26, repro,
2005-07-17,-2.51, 1.60, -10.96, 2.37, 1.60, 7.36, repro,
2005-07-18,-2.53, 1.79, -6.08, 2.37, 1.59, 7.34, repro,
2005-07-19,-1.63, 2.38, -8.95, 2.35, 1.59, 7.29, repro,
2005-07-20,-1.24, 1.75, -5.74, 2.33, 1.59, 7.25, repro,
2005-07-21,-2.70, 2.40, -5.41, 2.35, 1.59, 7.24, repro,
2005-07-22,-3.48, 3.12, -10.50, 2.38, 1.61, 7.40, repro,
2005-07-23,-2.97, 3.28, -19.93, 2.38, 1.60, 7.36, repro,
2005-07-24,-3.55, 2.14, -13.12, 2.37, 1.62, 7.44, repro,
2005-07-25,-0.57, 4.68, -6.54, 2.36, 1.62, 7.44, repro,
2005-07-26,-1.54, 2.30, -9.05, 2.40, 1.67, 7.63, repro,
2005-07-27,-0.89, 3.36, -6.83, 2.43, 1.69, 7.60, repro,
2005-07-28,-1.90, 2.69, -4.64, 2.45, 1.69, 7.69, repro,
2005-07-29,-2.99, 4.11, -17.97, 2.38, 1.63, 7.49, repro,
2005-07-30,-0.80, 2.01, -5.40, 2.44, 1.64, 7.65, repro,
2005-07-31,-1.72, 3.14, -8.70, 2.38, 1.62, 7.46, repro,
2005-08-01,1.02, 5.29, -7.17, 2.40, 1.62, 7.45, repro,
2005-08-02,-1.13, 2.93, -7.24, 2.39, 1.62, 7.44, repro,
2005-08-03,-2.85, 3.65, -7.48, 2.37, 1.59, 7.34, repro,
2005-08-04,-2.98, 2.49, -6.15, 2.34, 1.59, 7.28, repro,
2005-08-05,-1.08, 2.69, -4.00, 2.35, 1.60, 7.31, repro,
2005-08-06,-2.01, 3.39, -8.22, 2.35, 1.59, 7.28, repro,
2005-08-07,-0.81, 2.54, -10.18, 2.36, 1.59, 7.27, repro,
2005-08-08,-1.95, 2.99, -9.52, 2.37, 1.59, 7.29, repro,
2005-08-09,-2.22, 3.37, -5.12, 2.36, 1.60, 7.32, repro,
2005-08-10,-2.33, 4.05, -7.19, 2.44, 1.64, 7.53, repro,
2005-08-11,-2.64, 3.17, -3.22, 2.42, 1.66, 7.54, repro,
2005-08-12,-3.12, 2.09, -7.61, 2.41, 1.65, 7.49, repro,
2005-08-13,-2.11, 3.59, -9.87, 2.36, 1.59, 7.30, repro,
2005-08-14,-0.63, 1.90, -1.65, 2.39, 1.64, 7.44, repro,
2005-08-15,-2.33, -0.57, -0.94, 2.43, 1.65, 7.52, repro,
2005-08-16,-0.87, 2.27, -5.30, 2.44, 1.65, 7.55, repro,
2005-08-17,-1.38, 4.89, -0.79, 2.45, 1.65, 7.54, repro,
2005-08-18,-0.21, 2.00, -4.42, 2.35, 1.59, 7.32, repro,
2005-08-19,-1.47, 1.71, -3.38, 2.33, 1.58, 7.25, repro,
2005-08-20,-2.12, 1.14, -1.78, 2.42, 1.62, 7.49, repro,
2005-08-21,-1.07, 4.21, -4.68, 2.37, 1.60, 7.38, repro,
2005-08-22,-2.43, 4.81, -0.29, 2.39, 1.59, 7.43, repro,
2005-08-23,-1.55, 1.77, -2.59, 2.36, 1.59, 7.35, repro,
2005-08-24,0.63, 2.91, 0.43, 2.33, 1.59, 7.25, repro,
2005-08-25,-3.66, 4.51, -14.57, 2.33, 1.58, 7.28, repro,
2005-08-26,-3.62, 2.85, -5.82, 2.37, 1.59, 7.37, repro,
2005-08-27,-3.06, 3.75, -6.45, 2.56, 1.65, 7.68, repro,
2005-08-28,1.59, 5.13, -1.68, 2.38, 1.59, 7.39, repro,
2005-08-29,-1.40, 4.72, -4.11, 2.39, 1.64, 7.45, repro,
2005-08-30,-1.93, 3.13, -3.97, 2.35, 1.63, 7.52, repro,
2005-08-31,-1.45, 3.56, -5.40, 2.39, 1.60, 7.47, repro,
2005-09-01,-2.05, 2.02, 4.18, 2.36, 1.60, 7.37, repro,
2005-09-02,-2.08, 4.32, -1.26, 2.37, 1.60, 7.41, repro,
2005-09-03,-0.30, 3.95, -6.02, 2.35, 1.59, 7.34, repro,
2005-09-04,-1.50, 3.29, 2.53, 2.36, 1.63, 7.37, repro,
2005-09-05,-1.16, 4.14, -2.87, 2.33, 1.58, 7.28, repro,
2005-09-06,-3.24, 1.68, -11.67, 2.35, 1.59, 7.32, repro,
2005-09-07,-2.75, 2.46, -5.81, 2.46, 1.61, 7.45, repro,
2005-09-08,-1.87, 2.38, -8.49, 2.46, 1.61, 7.46, repro,
2005-09-09,-2.57, 2.78, -1.53, 2.42, 1.60, 7.38, repro,
2005-09-10,-2.17, 3.20, -5.62, 2.41, 1.61, 7.43, repro,
2005-09-11,-1.81, 2.71, -1.88, 2.44, 1.61, 7.47, repro,
2005-09-12,-1.01, 1.60, -0.78, 2.44, 1.60, 7.41, repro,
2005-09-13,-1.07, 2.31, 1.54, 2.54, 1.70, 7.79, repro,
2005-09-14,-2.71, 1.89, -3.99, 2.43, 1.64, 7.46, repro,
2005-09-15,-2.67, 3.46, -7.46, 2.45, 1.65, 7.49, repro,
2005-09-16,-2.80, 2.49, 3.22, 2.48, 1.65, 7.58, repro,
2005-09-17,-1.05, 3.30, -1.83, 2.36, 1.59, 7.36, repro,
2005-09-18,-2.60, 1.71, -4.64, 2.37, 1.59, 7.38, repro,
2005-09-19,-2.20, 3.42, -2.96, 2.39, 1.60, 7.48, repro,
2005-09-20,-2.10, 2.35, -1.67, 2.34, 1.61, 7.41, repro,
2005-09-21,-2.16, 2.31, -7.05, 2.40, 1.62, 7.57, repro,
2005-09-22,-2.62, 2.15, -5.55, 2.37, 1.59, 7.39, repro,
2005-09-23,-0.41, 1.88, -6.90, 2.36, 1.58, 7.34, repro,
2005-09-24,-2.01, 1.88, -0.06, 2.39, 1.64, 7.50, repro,
2005-09-25,-1.61, 2.54, 1.71, 2.38, 1.63, 7.43, repro,
2005-09-26,-3.61, 3.41, -0.83, 2.37, 1.63, 7.46, repro,
2005-09-27,-4.01, 2.30, -0.96, 2.50, 1.69, 7.87, repro,
2005-09-28,-2.46, 3.18, 1.97, 2.46, 1.61, 7.46, repro,
2005-09-29,-0.72, 4.88, -3.28, 2.42, 1.62, 7.41, repro,
2005-09-30,-0.16, 4.51, 3.69, 2.34, 1.59, 7.33, repro,
2005-10-01,-3.10, 3.59, 0.16, 2.34, 1.58, 7.29, repro,
2005-10-02,-3.72, 5.21, -12.52, 2.40, 1.63, 7.51, repro,
2005-10-03,-3.54, 2.79, -8.02, 2.41, 1.63, 7.51, repro,
2005-10-04,-1.63, 2.52, -4.77, 2.41, 1.61, 7.44, repro,
2005-10-05,-3.03, 3.97, -7.22, 2.36, 1.58, 7.31, repro,
2005-10-06,-6.75, 3.35, -5.67, 2.35, 1.58, 7.28, repro,
2005-10-07,-3.24, 3.77, -0.24, 2.36, 1.60, 7.38, repro,
2005-10-08,-4.06, 3.17, 2.84, 2.44, 1.60, 7.41, repro,
2005-10-09,-5.24, 2.28, -1.87, 2.38, 1.59, 7.34, repro,
2005-10-10,-3.46, 3.38, 4.42, 2.33, 1.58, 7.26, repro,
2005-10-11,-2.82, 4.21, -2.16, 2.35, 1.62, 7.38, repro,
2005-10-12,-4.52, 5.20, -5.70, 2.41, 1.62, 7.44, repro,
2005-10-13,-1.55, 3.03, 6.56, 2.41, 1.63, 7.60, repro,
2005-10-14,1.08, 5.55, -6.87, 2.37, 1.59, 7.38, repro,
2005-10-15,0.35, 4.14, -7.71, 2.49, 1.68, 7.62, repro,
2005-10-16,-3.94, 3.13, -2.69, 2.41, 1.61, 7.59, repro,
2005-10-17,-3.72, 6.18, -3.43, 2.37, 1.59, 7.34, repro,
2005-10-18,-3.25, 3.44, 1.91, 2.53, 1.74, 8.00, repro,
2005-10-19,-4.91, 3.88, -3.86, 2.42, 1.63, 7.52, repro,
2005-10-20,-3.94, 5.37, -6.11, 2.45, 1.62, 7.45, repro,
2005-10-21,-2.52, 2.54, -2.10, 2.37, 1.63, 7.51, repro,
2005-10-22,-7.48, 1.74, 2.64, 2.45, 1.60, 7.52, repro,
2005-10-23,-0.08, 6.07, 1.02, 2.39, 1.58, 7.35, repro,
2005-10-24,-3.19, 6.82, -8.17, 2.39, 1.60, 7.44, repro,
2005-10-25,5.80, 6.86, -4.93, 2.40, 1.62, 7.43, repro,
2005-10-26,-0.37, 5.08, -7.00, 2.39, 1.64, 7.47, repro,
2005-10-27,-5.04, 3.91, -8.67, 2.34, 1.61, 7.42, repro,
2005-10-28,0.43, 4.71, -10.99, 2.37, 1.59, 7.33, repro,
2005-10-29,-2.38, 3.15, -5.37, 2.40, 1.64, 7.56, repro,
2005-10-30,-3.08, 4.04, -4.91, 2.35, 1.58, 7.32, repro,
2005-10-31,-3.20, 4.41, -13.10, 2.49, 1.68, 7.65, repro,
2005-11-01,-1.95, 4.32, -3.43, 2.46, 1.70, 7.67, repro,
2005-11-02,-3.57, 2.91, -5.69, 2.42, 1.71, 7.64, repro,
2005-11-03,1.33, 4.88, -6.20, 2.42, 1.66, 7.47, repro,
2005-11-04,-1.59, 6.25, 2.50, 2.51, 1.74, 7.89, repro,
2005-11-05,-2.86, 5.39, -9.07, 2.46, 1.71, 7.65, repro,
2005-11-06,-0.76, 3.46, -11.38, 2.46, 1.72, 7.65, repro,
2005-11-07,-4.34, 2.59, -10.84, 2.48, 1.78, 7.89, repro,
2005-11-08,-5.93, 2.55, -8.75, 2.45, 1.69, 7.54, repro,
2005-11-09,-4.28, 3.14, -10.56, 2.54, 1.81, 8.09, repro,
2005-11-10,-1.49, 1.82, -13.90, 2.62, 1.79, 8.28, repro,
2005-11-11,-0.34, 2.52, -0.05, 2.43, 1.69, 7.67, repro,
2005-11-12,-1.41, 4.35, -1.30, 2.34, 1.66, 7.38, repro,
2005-11-13,-0.98, 5.52, -15.67, 2.50, 1.73, 7.91, repro,
2005-11-14,-4.76, 2.00, -15.58, 2.40, 1.65, 7.46, repro,
2005-11-15,-4.17, 3.23, -11.48, 2.38, 1.59, 7.39, repro,
2005-11-16,-0.13, 3.79, -18.79, 2.38, 1.60, 7.40, repro,
2005-11-17,-1.50, 3.79, -20.93, 2.38, 1.62, 7.45, repro,
2005-11-18,-3.27, 3.36, -15.55, 2.35, 1.60, 7.39, repro,
2005-11-19,-3.17, 3.25, -11.91, 2.32, 1.58, 7.29, repro,
2005-11-20,-3.58, 3.75, -13.16, 2.40, 1.62, 7.54, repro,
2005-11-21,-2.21, 3.51, -10.62, 2.46, 1.66, 7.76, repro,
2005-11-22,-1.98, 4.65, -8.14, 2.44, 1.71, 7.80, repro,
2005-11-23,-1.67, 3.54, -6.30, 2.33, 1.60, 7.36, repro,
2005-11-24,-6.63, 3.33, -10.21, 2.37, 1.63, 7.53, repro,
2005-11-25,-5.20, 3.85, -6.65, 2.39, 1.63, 7.46, repro,
2005-11-26,-4.84, 2.66, 4.85, 2.45, 1.69, 7.75, repro,
2005-11-27,-6.56, 3.43, -9.16, 2.36, 1.61, 7.43, repro,
2005-11-28,-5.68, 2.54, -12.30, 2.40, 1.65, 7.64, repro,
2005-11-29,-3.05, 3.19, -0.57, 2.45, 1.65, 7.63, repro,
2005-11-30,-4.40, 4.60, -9.28, 2.36, 1.61, 7.37, repro,
2005-12-01,-6.86, 6.01, -7.65, 2.40, 1.61, 7.45, repro,
2005-12-02,-2.61, 5.90, -8.45, 2.37, 1.61, 7.39, repro,
2005-12-03,-6.61, 7.12, -5.36, 2.34, 1.60, 7.36, repro,
2005-12-04,-7.60, 6.62, -11.50, 2.36, 1.60, 7.38, repro,
2005-12-05,-8.07, 7.20, -12.43, 2.38, 1.62, 7.44, repro,
2005-12-06,-7.77, 6.08, -12.84, 2.32, 1.58, 7.26, repro,
2005-12-07,-7.85, 6.67, -10.06, 2.40, 1.61, 7.45, repro,
2005-12-08,-9.41, 5.88, -14.99, 2.40, 1.63, 7.49, repro,
2005-12-09,-5.84, 5.93, -12.95, 2.46, 1.63, 7.65, repro,
2005-12-10,-9.43, 6.61, -8.74, 2.39, 1.62, 7.48, repro,
2005-12-11,-8.63, 5.81, -9.37, 2.34, 1.59, 7.33, repro,
2005-12-12,-8.80, 6.95, -10.02, 2.34, 1.57, 7.29, repro,
2005-12-13,-8.99, 6.62, -7.56, 2.34, 1.56, 7.24, repro,
2005-12-14,-7.73, 6.95, -15.03, 2.41, 1.66, 7.68, repro,
2005-12-15,-6.87, 7.20, -18.12, 2.47, 1.65, 7.70, repro,
2005-12-16,-8.01, 6.73, -10.64, 2.45, 1.62, 7.50, repro,
2005-12-17,-7.61, 7.34, -11.99, 2.41, 1.66, 7.52, repro,
2005-12-18,-8.37, 5.20, -20.66, 2.41, 1.65, 7.54, repro,
2005-12-19,-2.26, 10.26, -29.92, 2.49, 1.72, 7.69, repro,
2005-12-20,-0.94, 7.41, -23.04, 2.47, 1.72, 7.69, repro,
2005-12-21,0.30, 7.32, -17.49, 2.42, 1.71, 7.60, repro,
2005-12-22,2.07, 4.60, -21.46, 2.46, 1.72, 7.68, repro,
2005-12-23,-3.26, 2.31, -13.25, 2.43, 1.68, 7.42, repro,
2005-12-24,-0.05, 8.26, -16.97, 2.61, 1.76, 8.04, repro,
2005-12-25,-0.07, 5.38, -12.12, 2.45, 1.67, 7.57, repro,
2005-12-26,-1.07, 3.57, -23.61, 2.39, 1.62, 7.38, repro,
2005-12-27,-2.57, 4.65, -26.96, 2.43, 1.68, 7.55, repro,
2005-12-28,-4.74, 4.96, -21.95, 2.43, 1.66, 7.50, repro,
2005-12-29,-8.01, 3.05, -19.54, 2.62, 1.77, 8.39, repro,
2005-12-30,-6.00, 0.17, -8.97, 2.58, 1.80, 8.26, repro,
2005-12-31,-1.27, 2.86, -12.51, 2.65, 1.81, 8.28, repro,
2006-01-01,-0.86, 0.65, -6.66, 2.57, 1.74, 8.08, repro,
2006-01-02,-4.84, 3.39, -14.16, 2.39, 1.63, 7.37, repro,
2006-01-03,-3.62, 3.26, -21.95, 2.73, 1.98, 8.70, repro,
2006-01-04,-4.39, 2.36, -18.82, 2.52, 1.81, 7.90, repro,
2006-01-05,1.26, 7.50, -35.12, 2.49, 1.76, 7.94, repro,
2006-01-06,1.33, 3.55, -30.66, 2.52, 1.79, 8.07, repro,
2006-01-07,-2.58, 2.97, -26.58, 2.42, 1.68, 7.55, repro,
2006-01-08,-4.08, 2.02, -10.41, 2.50, 1.74, 7.90, repro,
2006-01-09,-3.88, 1.82, -22.63, 2.52, 1.77, 8.13, repro,
2006-01-10,-0.14, 2.92, -20.29, 2.53, 1.79, 8.16, repro,
2006-01-11,-1.49, 1.92, -17.34, 2.50, 1.76, 7.93, repro,
2006-01-12,-4.34, 1.66, -15.03, 2.42, 1.66, 7.51, repro,
2006-01-13,-0.70, 3.94, -28.25, 2.56, 1.76, 8.14, repro,
2006-01-14,-3.92, 2.13, -20.57, 2.44, 1.67, 7.59, repro,
2006-01-15,-5.02, 1.05, -9.90, 2.37, 1.62, 7.36, repro,
2006-01-16,-7.75, -0.81, -25.61, 2.51, 1.77, 7.81, repro,
2006-01-17,-2.89, 3.15, -24.71, 2.53, 1.69, 7.71, repro,
2006-01-18,-6.71, 0.08, -14.35, 2.39, 1.62, 7.43, repro,
2006-01-19,-4.40, 1.09, -17.59, 3.27, 2.08, 9.27, repro,
2006-01-20,-3.75, 3.52, -19.22, 6.45, 5.11, 23.05, repro,
2006-01-21,-4.79, 1.62, -15.23, 2.43, 1.64, 7.46, repro,
2006-01-22,-8.01, 2.24, -26.72, 2.45, 1.65, 7.50, repro,
2006-01-23,-2.47, 1.76, -22.48, 2.47, 1.62, 7.42, repro,
2006-01-24,-5.49, 0.98, -34.76, 2.55, 1.69, 7.70, repro,
2006-01-25,3.76, 3.65, -30.36, 2.40, 1.60, 7.32, repro,
2006-01-26,-1.76, 3.45, -20.90, 2.39, 1.60, 7.33, repro,
2006-01-27,-0.84, 4.18, -17.59, 2.39, 1.59, 7.34, repro,
2006-01-28,-1.35, 6.76, -25.54, 2.86, 1.85, 8.41, repro,
2006-01-29,-5.92, 6.97, -17.02, 2.33, 1.57, 7.24, repro,
2006-01-30,-2.89, 6.91, -25.44, 2.37, 1.62, 7.46, repro,
2006-01-31,-6.79, 5.50, -11.60, 2.33, 1.56, 7.27, repro,
2006-02-01,-4.84, 5.26, -12.70, 2.75, 1.82, 8.42, repro,
2006-02-02,-5.03, 4.93, -12.58, 2.34, 1.55, 7.24, repro,
2006-02-03,-6.54, 6.43, -14.39, 2.31, 1.57, 7.23, repro,
2006-02-04,-3.65, 7.11, -25.25, 2.40, 1.63, 7.54, repro,
2006-02-05,-10.19, 6.06, -16.99, 2.37, 1.60, 7.40, repro,
2006-02-06,-8.55, 7.17, -23.14, 2.33, 1.56, 7.29, repro,
2006-02-07,-8.88, 5.33, -27.64, 2.54, 1.68, 7.99, repro,
2006-02-08,-8.27, 8.34, -31.54, 2.34, 1.57, 7.33, repro,
2006-02-09,-7.27, 5.04, -30.04, 2.39, 1.57, 7.32, repro,
2006-02-10,-6.04, 6.86, -32.02, 2.47, 1.60, 7.38, repro,
2006-02-11,-8.23, 5.02, -33.24, 2.35, 1.55, 7.26, repro,
2006-02-12,-7.32, 6.71, -26.99, 2.32, 1.55, 7.24, repro,
2006-02-13,-8.33, 5.37, -27.40, 2.34, 1.56, 7.33, repro,